Location: Unspecified
(0.0000°N, 0.0000°E)
Time: 10:31:37
(UTC+00:00)

Envisat - Pass Details

Date: 12 February 2019
Orbit: 764 x 766 km, 98.2° (Epoch: 22 April)

Event Time Altitude Azimuth Distance (km) Brightness Sun altitude
Rises 18:35:32 0° 152° (SSE) 3,227 6.1 -5.2°
Reaches altitude 10° 18:38:01 10° 143° (SE) 2,299 5.3 -5.8°
Maximum altitude 18:42:36 35° 78° (ENE) 1,213 3.6 -6.9°
Drops below altitude 10° 18:47:11 10° 13° (NNE) 2,291 5.2 -8.0°
Sets 18:49:38 0° 4° (N) 3,215 6.0 -8.6°
